Darstellungsparameter: Aktuell verwendete Einstellungen:
Skalierung der Graphiken ... ?
xyx+y,   Skalierungsfaktor:      Skalierung: Modus: x, Faktor: 1
Darstellungszeitraum ... ?
Vom - - bis: - -   Zeitraum: 06.08.2018 - 07.08.2018
Min/Max/Avg-Anzeige ... ?
Zeige MMA aktuell
Zeige MMA Monat
Zeige MMA alles
Zeige --A aktuell
Zeige --A Monat
Zeige --A alles
Keine MMA-Anzeige
MMA:
Keine MMA-Graphiken
MMA-Basis: 06.08.2018 - 07.08.2018
Quicknavigation für Darstellung... ?
Tage:      1T, 2T, 3T, 5T -1T -2T -3T -5T +1T +2T +3T +5T
Wochen: 1W, 2W, 3W -1W -2W -3W +1W +2W +3W
Monate: 1M, 3M, 6M -1M -3M -6M +1M +3M +6M
Jahre:    1J, 3J, 5J, 10J -1J -3J -5J -10J +1J +3J +5J +10J
Nutze für die Darstellung ... ?
Originaldaten oder Mittelwerte auf ...
Stundenbasis Tagesbasis Wochenbasis
Monatsbasis Jahresbasis      Datenbasis: Original-Daten
Darstellen als:
Statistik (Auto) Statistik J:M      Darstellung:
Zur Graphik,    zurück zur Übersicht aller Sensoren.
 
Tabellarische Datenbersicht: ?
 
Sensor: Nr:Datum:Temp:Feuchte:Taupunkt:
Aussen-T/F 1 06-08-2018 00:00:00 19.9 C 65 % 13.13 C
2 06-08-2018 00:05:00 19.8 C 66 % 13.27 C
3 06-08-2018 00:10:00 19.7 C 66 % 13.17 C
4 06-08-2018 00:15:00 19.6 C 66 % 13.08 C
5 06-08-2018 00:20:00 19.4 C 67 % 13.12 C
6 06-08-2018 00:25:00 19.3 C 67 % 13.02 C
7 06-08-2018 00:30:00 19.2 C 67 % 12.93 C
8 06-08-2018 00:35:00 19.1 C 67 % 12.83 C
9 06-08-2018 00:40:00 19 C 68 % 12.96 C
10 06-08-2018 00:45:00 18.9 C 68 % 12.87 C
11 06-08-2018 00:50:00 18.8 C 69 % 13 C
12 06-08-2018 00:55:00 18.6 C 69 % 12.8 C
13 06-08-2018 01:00:00 18.5 C 70 % 12.93 C
14 06-08-2018 01:05:00 18.4 C 70 % 12.83 C
15 06-08-2018 01:10:00 18.3 C 71 % 12.95 C
16 06-08-2018 01:15:00 18.1 C 71 % 12.76 C
17 06-08-2018 01:20:00 18 C 71 % 12.67 C
18 06-08-2018 01:25:00 17.9 C 72 % 12.78 C
19 06-08-2018 01:30:00 17.8 C 71 % 12.47 C
20 06-08-2018 01:35:00 17.8 C 72 % 12.69 C
21 06-08-2018 01:40:00 17.7 C 72 % 12.59 C
22 06-08-2018 01:45:00 17.7 C 72 % 12.59 C
23 06-08-2018 01:50:00 17.7 C 72 % 12.59 C
24 06-08-2018 01:55:00 17.7 C 72 % 12.59 C
25 06-08-2018 02:00:00 17.7 C 71 % 12.38 C
Sensor: Nr:Datum:Temp:Feuchte:Taupunkt:
Aussen-T/F 26 06-08-2018 02:05:00 17.6 C 72 % 12.5 C
27 06-08-2018 02:10:00 17.5 C 72 % 12.4 C
28 06-08-2018 02:15:00 17.3 C 73 % 12.42 C
29 06-08-2018 02:20:00 17.3 C 73 % 12.42 C
30 06-08-2018 02:25:00 17.2 C 74 % 12.53 C
31 06-08-2018 02:30:00 17.2 C 74 % 12.53 C
32 06-08-2018 02:35:00 17.2 C 74 % 12.53 C
33 06-08-2018 02:40:00 17.1 C 74 % 12.43 C
34 06-08-2018 02:45:00 17 C 75 % 12.54 C
35 06-08-2018 02:50:00 16.9 C 75 % 12.44 C
36 06-08-2018 02:55:00 16.8 C 75 % 12.35 C
37 06-08-2018 03:00:00 16.8 C 75 % 12.35 C
38 06-08-2018 03:05:00 16.8 C 75 % 12.35 C
39 06-08-2018 03:10:00 16.8 C 76 % 12.55 C
40 06-08-2018 03:15:00 16.7 C 76 % 12.45 C
41 06-08-2018 03:20:00 16.7 C 76 % 12.45 C
42 06-08-2018 03:25:00 16.6 C 76 % 12.36 C
43 06-08-2018 03:30:00 16.5 C 76 % 12.26 C
44 06-08-2018 03:35:00 16.5 C 76 % 12.26 C
45 06-08-2018 03:40:00 16.4 C 77 % 12.36 C
46 06-08-2018 03:45:00 16.4 C 77 % 12.36 C
47 06-08-2018 03:50:00 16.4 C 77 % 12.36 C
48 06-08-2018 03:55:00 16.3 C 77 % 12.26 C
49 06-08-2018 04:00:00 16.3 C 77 % 12.26 C
50 06-08-2018 04:05:00 16.3 C 78 % 12.46 C
Sensor: Nr:Datum:Temp:Feuchte:Taupunkt:
Aussen-T/F 51 06-08-2018 04:10:00 16.3 C 78 % 12.46 C
52 06-08-2018 04:15:00 16.2 C 78 % 12.36 C
53 06-08-2018 04:20:00 16.2 C 78 % 12.36 C
54 06-08-2018 04:25:00 16.2 C 78 % 12.36 C
55 06-08-2018 04:30:00 16.1 C 78 % 12.27 C
56 06-08-2018 04:35:00 16.1 C 78 % 12.27 C
57 06-08-2018 04:40:00 16 C 78 % 12.17 C
58 06-08-2018 04:45:00 15.9 C 78 % 12.07 C
59 06-08-2018 04:50:00 15.8 C 78 % 11.97 C
60 06-08-2018 04:55:00 15.8 C 79 % 12.17 C
61 06-08-2018 05:00:00 15.7 C 79 % 12.07 C
62 06-08-2018 05:05:00 15.6 C 79 % 11.97 C
63 06-08-2018 05:10:00 15.6 C 80 % 12.16 C
64 06-08-2018 05:15:00 15.5 C 80 % 12.07 C
65 06-08-2018 05:20:00 15.4 C 80 % 11.97 C
66 06-08-2018 05:25:00 15.3 C 81 % 12.06 C
67 06-08-2018 05:30:00 15.3 C 81 % 12.06 C
68 06-08-2018 05:35:00 15.2 C 81 % 11.96 C
69 06-08-2018 05:40:00 15.2 C 82 % 12.15 C
70 06-08-2018 05:45:00 15.2 C 82 % 12.15 C
71 06-08-2018 05:50:00 15.2 C 82 % 12.15 C
72 06-08-2018 05:55:00 15.1 C 82 % 12.05 C
73 06-08-2018 06:00:00 15 C 82 % 11.95 C
74 06-08-2018 06:05:00 14.9 C 82 % 11.86 C
75 06-08-2018 06:10:00 14.9 C 82 % 11.86 C
Sensor: Nr:Datum:Temp:Feuchte:Taupunkt:
Aussen-T/F 76 06-08-2018 06:15:00 14.8 C 83 % 11.94 C
77 06-08-2018 06:20:00 14.8 C 83 % 11.94 C
78 06-08-2018 06:25:00 14.8 C 83 % 11.94 C
79 06-08-2018 06:30:00 14.8 C 83 % 11.94 C
80 06-08-2018 06:35:00 14.8 C 84 % 12.12 C
81 06-08-2018 06:40:00 14.8 C 83 % 11.94 C
82 06-08-2018 06:45:00 14.7 C 83 % 11.85 C
83 06-08-2018 06:50:00 14.7 C 84 % 12.03 C
84 06-08-2018 06:55:00 14.7 C 84 % 12.03 C
85 06-08-2018 07:00:00 14.7 C 84 % 12.03 C
86 06-08-2018 07:05:00 14.7 C 84 % 12.03 C
87 06-08-2018 07:10:00 14.7 C 84 % 12.03 C
88 06-08-2018 07:15:00 14.7 C 84 % 12.03 C
89 06-08-2018 07:20:00 14.7 C 84 % 12.03 C
90 06-08-2018 07:25:00 14.7 C 84 % 12.03 C
91 06-08-2018 07:30:00 14.7 C 84 % 12.03 C
92 06-08-2018 07:35:00 14.8 C 84 % 12.12 C
93 06-08-2018 07:40:00 14.8 C 84 % 12.12 C
94 06-08-2018 07:45:00 14.8 C 84 % 12.12 C
95 06-08-2018 07:50:00 14.9 C 84 % 12.22 C
96 06-08-2018 07:55:00 14.9 C 84 % 12.22 C
97 06-08-2018 08:00:00 15 C 84 % 12.32 C
98 06-08-2018 08:05:00 15.1 C 84 % 12.42 C
99 06-08-2018 08:10:00 15.2 C 84 % 12.52 C
100 06-08-2018 08:15:00 15.3 C 84 % 12.61 C
Sensor: Nr:Datum:Temp:Feuchte:Taupunkt:
Aussen-T/F 101 06-08-2018 08:20:00 15.4 C 84 % 12.71 C
102 06-08-2018 08:25:00 15.5 C 83 % 12.63 C
103 06-08-2018 08:30:00 15.6 C 83 % 12.72 C
104 06-08-2018 08:35:00 15.7 C 83 % 12.82 C
105 06-08-2018 08:40:00 15.7 C 83 % 12.82 C
106 06-08-2018 08:45:00 15.8 C 82 % 12.74 C
107 06-08-2018 08:50:00 16 C 82 % 12.93 C
108 06-08-2018 08:55:00 16.2 C 83 % 13.31 C
109 06-08-2018 09:00:00 16.3 C 82 % 13.22 C
110 06-08-2018 09:05:00 16.5 C 82 % 13.42 C
111 06-08-2018 09:10:00 16.7 C 81 % 13.43 C
112 06-08-2018 09:15:00 16.9 C 81 % 13.62 C
113 06-08-2018 09:20:00 17.1 C 81 % 13.82 C
114 06-08-2018 09:25:00 17.3 C 80 % 13.82 C
115 06-08-2018 09:30:00 17.6 C 80 % 14.11 C
116 06-08-2018 09:35:00 17.8 C 79 % 14.11 C
117 06-08-2018 09:40:00 17.9 C 78 % 14.01 C
118 06-08-2018 09:45:00 18.2 C 78 % 14.3 C
119 06-08-2018 09:50:00 18.4 C 77 % 14.3 C
120 06-08-2018 09:55:00 18.8 C 76 % 14.48 C
121 06-08-2018 10:00:00 19.1 C 74 % 14.36 C
122 06-08-2018 10:05:00 19.6 C 72 % 14.42 C
123 06-08-2018 10:10:00 20.1 C 71 % 14.68 C
124 06-08-2018 10:15:00 20.6 C 70 % 14.94 C
125 06-08-2018 10:20:00 20.9 C 69 % 15 C
Sensor: Nr:Datum:Temp:Feuchte:Taupunkt:
Aussen-T/F 126 06-08-2018 10:25:00 21.3 C 67 % 14.93 C
127 06-08-2018 10:30:00 21.7 C 65 % 14.84 C
128 06-08-2018 10:35:00 22.2 C 66 % 15.55 C
129 06-08-2018 10:40:00 22.5 C 64 % 15.35 C
130 06-08-2018 10:45:00 22.8 C 61 % 14.89 C
131 06-08-2018 10:50:00 23.1 C 62 % 15.42 C
132 06-08-2018 10:55:00 23.4 C 60 % 15.19 C
133 06-08-2018 11:00:00 23.9 C 58 % 15.14 C
134 06-08-2018 11:05:00 24.3 C 57 % 15.24 C
135 06-08-2018 11:10:00 24.8 C 56 % 15.43 C
136 06-08-2018 11:15:00 25.2 C 54 % 15.23 C
137 06-08-2018 11:20:00 25.4 C 56 % 15.99 C
138 06-08-2018 11:25:00 25.7 C 53 % 15.4 C
139 06-08-2018 11:30:00 25.9 C 52 % 15.29 C
140 06-08-2018 11:35:00 26.3 C 51 % 15.36 C
141 06-08-2018 11:40:00 26.6 C 50 % 15.32 C
142 06-08-2018 11:45:00 26.8 C 50 % 15.51 C
143 06-08-2018 11:50:00 27.1 C 49 % 15.47 C
144 06-08-2018 11:55:00 27.3 C 48 % 15.33 C
145 06-08-2018 12:00:00 27.4 C 47 % 15.09 C
146 06-08-2018 12:05:00 27.6 C 46 % 14.94 C
147 06-08-2018 12:10:00 27.7 C 46 % 15.03 C
148 06-08-2018 12:15:00 27.8 C 47 % 15.45 C
149 06-08-2018 12:20:00 27.9 C 46 % 15.21 C
150 06-08-2018 12:25:00 28.1 C 46 % 15.39 C
Sensor: Nr:Datum:Temp:Feuchte:Taupunkt:
Aussen-T/F 151 06-08-2018 12:30:00 28.2 C 44 % 14.79 C
152 06-08-2018 12:35:00 28.2 C 44 % 14.79 C
153 06-08-2018 12:40:00 28.3 C 45 % 15.23 C
154 06-08-2018 12:45:00 28.3 C 43 % 14.53 C
155 06-08-2018 12:50:00 28.4 C 43 % 14.62 C
156 06-08-2018 12:55:00 28.8 C 42 % 14.61 C
157 06-08-2018 13:00:00 28.9 C 42 % 14.7 C
158 06-08-2018 13:05:00 29 C 40 % 14.03 C
159 06-08-2018 13:10:00 29 C 39 % 13.65 C
160 06-08-2018 13:15:00 29.1 C 40 % 14.12 C
161 06-08-2018 13:20:00 29.2 C 40 % 14.21 C
162 06-08-2018 13:25:00 29.3 C 39 % 13.91 C
163 06-08-2018 13:30:00 29.5 C 38 % 13.69 C
164 06-08-2018 13:35:00 29.6 C 38 % 13.78 C
165 06-08-2018 13:40:00 29.8 C 38 % 13.95 C
166 06-08-2018 13:45:00 30 C 38 % 14.13 C
167 06-08-2018 13:50:00 30.1 C 38 % 14.22 C
168 06-08-2018 13:55:00 30.3 C 37 % 13.99 C
169 06-08-2018 14:00:00 30.6 C 37 % 14.25 C
170 06-08-2018 14:05:00 30.7 C 36 % 13.92 C
171 06-08-2018 14:10:00 30.6 C 36 % 13.83 C
172 06-08-2018 14:15:00 30.6 C 37 % 14.25 C
173 06-08-2018 14:20:00 30.7 C 36 % 13.92 C
174 06-08-2018 14:25:00 30.8 C 37 % 14.43 C
175 06-08-2018 14:30:00 30.9 C 36 % 14.09 C
Sensor: Nr:Datum:Temp:Feuchte:Taupunkt:
Aussen-T/F 176 06-08-2018 14:35:00 31 C 37 % 14.6 C
177 06-08-2018 14:40:00 31 C 36 % 14.18 C
178 06-08-2018 14:45:00 31.1 C 37 % 14.69 C
179 06-08-2018 14:50:00 31.2 C 38 % 15.19 C
180 06-08-2018 14:55:00 31.3 C 36 % 14.44 C
181 06-08-2018 15:00:00 31.4 C 37 % 14.96 C
182 06-08-2018 15:05:00 31.6 C 37 % 15.13 C
183 06-08-2018 15:10:00 31.8 C 37 % 15.31 C
184 06-08-2018 15:15:00 32.1 C 36 % 15.15 C
185 06-08-2018 15:20:00 32.5 C 36 % 15.5 C
186 06-08-2018 15:25:00 32.8 C 35 % 15.32 C
187 06-08-2018 15:30:00 33 C 35 % 15.5 C
188 06-08-2018 15:35:00 33.2 C 35 % 15.67 C
189 06-08-2018 15:40:00 33.4 C 34 % 15.39 C
190 06-08-2018 15:45:00 33.6 C 34 % 15.57 C
191 06-08-2018 15:50:00 33.9 C 33 % 15.36 C
192 06-08-2018 15:55:00 34.3 C 33 % 15.71 C
193 06-08-2018 16:00:00 34.6 C 32 % 15.49 C
194 06-08-2018 16:05:00 34.3 C 34 % 16.18 C
195 06-08-2018 16:10:00 33.9 C 33 % 15.36 C
196 06-08-2018 16:15:00 33.6 C 34 % 15.57 C
197 06-08-2018 16:20:00 33.3 C 34 % 15.31 C
198 06-08-2018 16:25:00 33.4 C 34 % 15.39 C
199 06-08-2018 16:30:00 34.1 C 34 % 16 C
200 06-08-2018 16:35:00 34.4 C 33 % 15.8 C
Sensor: Nr:Datum:Temp:Feuchte:Taupunkt:
Aussen-T/F 201 06-08-2018 16:40:00 34.6 C 32 % 15.49 C
202 06-08-2018 16:45:00 34.7 C 32 % 15.58 C
203 06-08-2018 16:50:00 34.7 C 32 % 15.58 C
204 06-08-2018 16:55:00 34.4 C 33 % 15.8 C
205 06-08-2018 17:00:00 34 C 33 % 15.45 C
206 06-08-2018 17:05:00 33.8 C 36 % 16.64 C
207 06-08-2018 17:10:00 33.8 C 34 % 15.74 C
208 06-08-2018 17:15:00 34.2 C 34 % 16.09 C
209 06-08-2018 17:20:00 34.8 C 32 % 15.66 C
210 06-08-2018 17:25:00 34.5 C 32 % 15.4 C
211 06-08-2018 17:30:00 34.2 C 33 % 15.62 C
212 06-08-2018 17:35:00 34.3 C 32 % 15.23 C
213 06-08-2018 17:40:00 34.2 C 33 % 15.62 C
214 06-08-2018 17:45:00 34.4 C 33 % 15.8 C
215 06-08-2018 17:50:00 34.8 C 33 % 16.14 C
216 06-08-2018 17:55:00 35.1 C 31 % 15.43 C
217 06-08-2018 18:00:00 35.3 C 29 % 14.56 C
218 06-08-2018 18:05:00 35.4 C 29 % 14.65 C
219 06-08-2018 18:10:00 35.6 C 29 % 14.82 C
220 06-08-2018 18:15:00 35.8 C 28 % 14.44 C
221 06-08-2018 18:20:00 35.8 C 28 % 14.44 C
222 06-08-2018 18:25:00 35.8 C 28 % 14.44 C
223 06-08-2018 18:30:00 35.7 C 28 % 14.36 C
224 06-08-2018 18:35:00 35.3 C 28 % 14.02 C
225 06-08-2018 18:40:00 35.2 C 32 % 16.01 C
Sensor: Nr:Datum:Temp:Feuchte:Taupunkt:
Aussen-T/F 226 06-08-2018 18:45:00 35.4 C 29 % 14.65 C
227 06-08-2018 18:50:00 35.7 C 28 % 14.36 C
228 06-08-2018 18:55:00 35.9 C 28 % 14.53 C
229 06-08-2018 19:00:00 35.9 C 30 % 15.6 C
230 06-08-2018 19:05:00 35.9 C 28 % 14.53 C
231 06-08-2018 19:10:00 36.1 C 27 % 14.14 C
232 06-08-2018 19:15:00 35.9 C 27 % 13.97 C
233 06-08-2018 19:20:00 35.7 C 27 % 13.8 C
234 06-08-2018 19:25:00 35.4 C 31 % 15.68 C
235 06-08-2018 19:30:00 35.2 C 33 % 16.49 C
236 06-08-2018 19:35:00 34.9 C 35 % 17.16 C
237 06-08-2018 19:40:00 34.6 C 34 % 16.44 C
238 06-08-2018 19:45:00 34.3 C 36 % 17.08 C
239 06-08-2018 19:50:00 33.9 C 35 % 16.28 C
240 06-08-2018 19:55:00 33.6 C 36 % 16.46 C
241 06-08-2018 20:00:00 33.3 C 38 % 17.05 C
242 06-08-2018 20:05:00 33 C 38 % 16.78 C
243 06-08-2018 20:10:00 32.6 C 40 % 17.24 C
244 06-08-2018 20:15:00 32 C 39 % 16.31 C
245 06-08-2018 20:20:00 31.6 C 40 % 16.35 C
246 06-08-2018 20:25:00 31.2 C 41 % 16.38 C
247 06-08-2018 20:30:00 30.8 C 41 % 16.02 C
248 06-08-2018 20:35:00 30.4 C 41 % 15.67 C
249 06-08-2018 20:40:00 30.1 C 43 % 16.14 C
250 06-08-2018 20:45:00 29.8 C 43 % 15.87 C
Sensor: Nr:Datum:Temp:Feuchte:Taupunkt:
Aussen-T/F 251 06-08-2018 20:50:00 29.4 C 44 % 15.87 C
252 06-08-2018 20:55:00 29.1 C 44 % 15.6 C
253 06-08-2018 21:00:00 28.8 C 44 % 15.33 C
254 06-08-2018 21:05:00 28.5 C 45 % 15.41 C
255 06-08-2018 21:10:00 28.3 C 45 % 15.23 C
256 06-08-2018 21:15:00 28.2 C 45 % 15.14 C
257 06-08-2018 21:20:00 28 C 45 % 14.96 C
258 06-08-2018 21:25:00 27.9 C 46 % 15.21 C
259 06-08-2018 21:30:00 27.8 C 47 % 15.45 C
260 06-08-2018 21:35:00 27.6 C 50 % 16.24 C
261 06-08-2018 21:40:00 27.2 C 49 % 15.56 C
262 06-08-2018 21:45:00 26.9 C 51 % 15.91 C
263 06-08-2018 21:50:00 26.6 C 50 % 15.32 C
264 06-08-2018 21:55:00 26.3 C 52 % 15.66 C
265 06-08-2018 22:00:00 26.2 C 53 % 15.87 C
266 06-08-2018 22:05:00 25.8 C 53 % 15.5 C
267 06-08-2018 22:10:00 25.6 C 54 % 15.6 C
268 06-08-2018 22:15:00 25.4 C 56 % 15.99 C
269 06-08-2018 22:20:00 25.2 C 56 % 15.8 C
270 06-08-2018 22:25:00 25 C 54 % 15.05 C
271 06-08-2018 22:30:00 24.9 C 57 % 15.8 C
272 06-08-2018 22:35:00 24.8 C 57 % 15.7 C
273 06-08-2018 22:40:00 24.7 C 58 % 15.88 C
274 06-08-2018 22:45:00 24.6 C 59 % 16.06 C
275 06-08-2018 22:50:00 24.4 C 58 % 15.6 C
Sensor: Nr:Datum:Temp:Feuchte:Taupunkt:
Aussen-T/F 276 06-08-2018 22:55:00 24.3 C 58 % 15.51 C
277 06-08-2018 23:00:00 24.3 C 59 % 15.78 C
278 06-08-2018 23:05:00 24.3 C 59 % 15.78 C
279 06-08-2018 23:10:00 24.2 C 59 % 15.68 C
280 06-08-2018 23:15:00 24 C 60 % 15.76 C
281 06-08-2018 23:20:00 23.8 C 61 % 15.83 C
282 06-08-2018 23:25:00 23.5 C 61 % 15.55 C
283 06-08-2018 23:30:00 23.3 C 61 % 15.36 C
284 06-08-2018 23:35:00 23.2 C 61 % 15.26 C
285 06-08-2018 23:40:00 23.1 C 63 % 15.67 C
286 06-08-2018 23:45:00 22.9 C 62 % 15.23 C
287 06-08-2018 23:50:00 22.8 C 63 % 15.39 C
288 06-08-2018 23:55:00 22.6 C 64 % 15.45 C
289 07-08-2018 00:00:00 22.4 C 64 % 15.26 C
290 07-08-2018 00:05:00 22.2 C 65 % 15.31 C
291 07-08-2018 00:10:00 22 C 65 % 15.12 C
292 07-08-2018 00:15:00 21.8 C 64 % 14.69 C
293 07-08-2018 00:20:00 21.7 C 65 % 14.84 C
294 07-08-2018 00:25:00 21.6 C 64 % 14.5 C
295 07-08-2018 00:30:00 21.6 C 64 % 14.5 C
296 07-08-2018 00:35:00 21.5 C 65 % 14.65 C
297 07-08-2018 00:40:00 21.5 C 64 % 14.41 C
298 07-08-2018 00:45:00 21.5 C 65 % 14.65 C
299 07-08-2018 00:50:00 21.5 C 65 % 14.65 C
300 07-08-2018 00:55:00 21.5 C 64 % 14.41 C
Sensor: Nr:Datum:Temp:Feuchte:Taupunkt:
Aussen-T/F 301 07-08-2018 01:00:00 21.5 C 65 % 14.65 C
302 07-08-2018 01:05:00 21.4 C 65 % 14.55 C
303 07-08-2018 01:10:00 21.4 C 65 % 14.55 C
304 07-08-2018 01:15:00 21.2 C 65 % 14.36 C
305 07-08-2018 01:20:00 21 C 66 % 14.41 C
306 07-08-2018 01:25:00 20.9 C 66 % 14.31 C
307 07-08-2018 01:30:00 20.7 C 67 % 14.36 C
308 07-08-2018 01:35:00 20.6 C 68 % 14.49 C
309 07-08-2018 01:40:00 20.3 C 67 % 13.97 C
310 07-08-2018 01:45:00 20.2 C 68 % 14.11 C
311 07-08-2018 01:50:00 20 C 69 % 14.14 C
312 07-08-2018 01:55:00 19.8 C 70 % 14.17 C
313 07-08-2018 02:00:00 19.7 C 70 % 14.08 C
314 07-08-2018 02:05:00 19.4 C 71 % 14.01 C
315 07-08-2018 02:10:00 19.3 C 71 % 13.91 C
316 07-08-2018 02:15:00 19.1 C 72 % 13.94 C
317 07-08-2018 02:20:00 19.1 C 72 % 13.94 C
318 07-08-2018 02:25:00 19 C 72 % 13.84 C
319 07-08-2018 02:30:00 19.1 C 72 % 13.94 C
320 07-08-2018 02:35:00 19.3 C 73 % 14.34 C
321 07-08-2018 02:40:00 19.5 C 74 % 14.74 C
322 07-08-2018 02:45:00 19.5 C 73 % 14.53 C
323 07-08-2018 02:50:00 19.4 C 72 % 14.22 C
324 07-08-2018 02:55:00 19.3 C 72 % 14.13 C
325 07-08-2018 03:00:00 19.1 C 73 % 14.15 C
Sensor: Nr:Datum:Temp:Feuchte:Taupunkt:
Aussen-T/F 326 07-08-2018 03:05:00 18.9 C 73 % 13.96 C
327 07-08-2018 03:10:00 18.8 C 73 % 13.86 C
328 07-08-2018 03:15:00 18.7 C 73 % 13.76 C
329 07-08-2018 03:20:00 18.6 C 74 % 13.88 C
330 07-08-2018 03:25:00 18.6 C 74 % 13.88 C
331 07-08-2018 03:30:00 18.6 C 74 % 13.88 C
332 07-08-2018 03:35:00 18.5 C 74 % 13.78 C
333 07-08-2018 03:40:00 18.3 C 74 % 13.59 C
334 07-08-2018 03:45:00 18.2 C 75 % 13.7 C
335 07-08-2018 03:50:00 18.1 C 75 % 13.6 C
336 07-08-2018 03:55:00 18.1 C 75 % 13.6 C
337 07-08-2018 04:00:00 17.9 C 76 % 13.61 C
338 07-08-2018 04:05:00 17.8 C 76 % 13.52 C
339 07-08-2018 04:10:00 17.8 C 76 % 13.52 C
340 07-08-2018 04:15:00 17.7 C 77 % 13.62 C
341 07-08-2018 04:20:00 17.6 C 77 % 13.52 C
342 07-08-2018 04:25:00 17.5 C 78 % 13.62 C
343 07-08-2018 04:30:00 17.4 C 78 % 13.53 C
344 07-08-2018 04:35:00 17.4 C 78 % 13.53 C
345 07-08-2018 04:40:00 17.3 C 78 % 13.43 C
346 07-08-2018 04:45:00 17.2 C 78 % 13.33 C
347 07-08-2018 04:50:00 17.2 C 79 % 13.53 C
348 07-08-2018 04:55:00 17.2 C 79 % 13.53 C
349 07-08-2018 05:00:00 17.2 C 80 % 13.72 C
350 07-08-2018 05:05:00 17.2 C 80 % 13.72 C
Sensor: Nr:Datum:Temp:Feuchte:Taupunkt:
Aussen-T/F 351 07-08-2018 05:10:00 17.2 C 80 % 13.72 C
352 07-08-2018 05:15:00 17.2 C 80 % 13.72 C
353 07-08-2018 05:20:00 17.2 C 79 % 13.53 C
354 07-08-2018 05:25:00 17.1 C 79 % 13.43 C
355 07-08-2018 05:30:00 16.9 C 79 % 13.24 C
356 07-08-2018 05:35:00 16.9 C 80 % 13.43 C
357 07-08-2018 05:40:00 16.8 C 80 % 13.33 C
358 07-08-2018 05:45:00 16.7 C 80 % 13.23 C
359 07-08-2018 05:50:00 16.7 C 81 % 13.43 C
360 07-08-2018 05:55:00 16.6 C 81 % 13.33 C
361 07-08-2018 06:00:00 16.5 C 81 % 13.23 C
362 07-08-2018 06:05:00 16.6 C 82 % 13.52 C
363 07-08-2018 06:10:00 16.6 C 82 % 13.52 C
364 07-08-2018 06:15:00 16.6 C 82 % 13.52 C
365 07-08-2018 06:20:00 16.6 C 82 % 13.52 C
366 07-08-2018 06:25:00 16.5 C 82 % 13.42 C
367 07-08-2018 06:30:00 16.6 C 82 % 13.52 C
368 07-08-2018 06:35:00 16.6 C 83 % 13.7 C
369 07-08-2018 06:40:00 16.7 C 83 % 13.8 C
370 07-08-2018 06:45:00 16.7 C 82 % 13.61 C
371 07-08-2018 06:50:00 16.8 C 82 % 13.71 C
372 07-08-2018 06:55:00 16.8 C 82 % 13.71 C
373 07-08-2018 07:00:00 16.9 C 82 % 13.81 C
374 07-08-2018 07:05:00 16.9 C 82 % 13.81 C
375 07-08-2018 07:10:00 16.9 C 83 % 14 C
Sensor: Nr:Datum:Temp:Feuchte:Taupunkt:
Aussen-T/F 376 07-08-2018 07:15:00 17 C 83 % 14.09 C
377 07-08-2018 07:20:00 17 C 83 % 14.09 C
378 07-08-2018 07:25:00 17 C 83 % 14.09 C
379 07-08-2018 07:30:00 17.1 C 83 % 14.19 C
380 07-08-2018 07:35:00 17.1 C 83 % 14.19 C
381 07-08-2018 07:40:00 17.2 C 83 % 14.29 C
382 07-08-2018 07:45:00 17.3 C 83 % 14.39 C
383 07-08-2018 07:50:00 17.3 C 83 % 14.39 C
384 07-08-2018 07:55:00 17.4 C 84 % 14.67 C
385 07-08-2018 08:00:00 17.5 C 83 % 14.58 C
386 07-08-2018 08:05:00 17.6 C 83 % 14.68 C
387 07-08-2018 08:10:00 17.7 C 83 % 14.78 C
388 07-08-2018 08:15:00 17.8 C 83 % 14.88 C
389 07-08-2018 08:20:00 17.9 C 83 % 14.97 C
390 07-08-2018 08:25:00 18.1 C 83 % 15.17 C
391 07-08-2018 08:30:00 18.2 C 82 % 15.08 C
392 07-08-2018 08:35:00 18.3 C 82 % 15.17 C
393 07-08-2018 08:40:00 18.3 C 82 % 15.17 C
394 07-08-2018 08:45:00 18.6 C 82 % 15.47 C
395 07-08-2018 08:50:00 18.7 C 83 % 15.75 C
396 07-08-2018 08:55:00 18.8 C 82 % 15.66 C
397 07-08-2018 09:00:00 19 C 81 % 15.67 C
398 07-08-2018 09:05:00 19.2 C 79 % 15.47 C
399 07-08-2018 09:10:00 19.5 C 80 % 15.96 C
400 07-08-2018 09:15:00 19.8 C 81 % 16.45 C
Sensor: Nr:Datum:Temp:Feuchte:Taupunkt:
Aussen-T/F 401 07-08-2018 09:20:00 20.1 C 80 % 16.54 C
402 07-08-2018 09:25:00 20.2 C 80 % 16.64 C
403 07-08-2018 09:30:00 20.4 C 76 % 16.03 C
404 07-08-2018 09:35:00 20.7 C 77 % 16.52 C
405 07-08-2018 09:40:00 21.1 C 74 % 16.29 C
406 07-08-2018 09:45:00 21.6 C 72 % 16.34 C
407 07-08-2018 09:50:00 22 C 71 % 16.5 C
408 07-08-2018 09:55:00 22.3 C 70 % 16.56 C
409 07-08-2018 10:00:00 22.6 C 68 % 16.39 C
410 07-08-2018 10:05:00 22.8 C 69 % 16.82 C
411 07-08-2018 10:10:00 23.1 C 68 % 16.87 C
412 07-08-2018 10:15:00 23.2 C 69 % 17.2 C
413 07-08-2018 10:20:00 23.2 C 69 % 17.2 C
414 07-08-2018 10:25:00 23.2 C 69 % 17.2 C
415 07-08-2018 10:30:00 23.3 C 69 % 17.29 C
416 07-08-2018 10:35:00 23.5 C 69 % 17.48 C
417 07-08-2018 10:40:00 23.7 C 68 % 17.44 C
418 07-08-2018 10:45:00 23.9 C 69 % 17.87 C
419 07-08-2018 10:50:00 24.2 C 67 % 17.68 C
420 07-08-2018 10:55:00 24.4 C 67 % 17.87 C
421 07-08-2018 11:00:00 24.7 C 67 % 18.16 C
422 07-08-2018 11:05:00 24.9 C 68 % 18.59 C
423 07-08-2018 11:10:00 25.1 C 66 % 18.3 C
424 07-08-2018 11:15:00 25.3 C 66 % 18.49 C
425 07-08-2018 11:20:00 25.6 C 65 % 18.53 C
Sensor: Nr:Datum:Temp:Feuchte:Taupunkt:
Aussen-T/F 426 07-08-2018 11:25:00 25.9 C 63 % 18.31 C
427 07-08-2018 11:30:00 26.3 C 62 % 18.44 C
428 07-08-2018 11:35:00 26.8 C 60 % 18.38 C
429 07-08-2018 11:40:00 27.3 C 58 % 18.31 C
430 07-08-2018 11:45:00 27.8 C 56 % 18.22 C
431 07-08-2018 11:50:00 28.2 C 56 % 18.59 C
432 07-08-2018 11:55:00 28.6 C 55 % 18.67 C
433 07-08-2018 12:00:00 28.9 C 52 % 18.05 C
434 07-08-2018 12:05:00 29.2 C 50 % 17.71 C
435 07-08-2018 12:10:00 29.7 C 50 % 18.16 C
436 07-08-2018 12:15:00 30.2 C 47 % 17.64 C
437 07-08-2018 12:20:00 30.7 C 46 % 17.75 C
438 07-08-2018 12:25:00 31.1 C 45 % 17.76 C
439 07-08-2018 12:30:00 31.4 C 43 % 17.31 C
440 07-08-2018 12:35:00 31.7 C 41 % 16.83 C
441 07-08-2018 12:40:00 31.8 C 40 % 16.53 C
442 07-08-2018 12:45:00 31.9 C 40 % 16.62 C
443 07-08-2018 12:50:00 32.1 C 39 % 16.4 C
444 07-08-2018 12:55:00 32.2 C 39 % 16.48 C
445 07-08-2018 13:00:00 32.2 C 40 % 16.88 C
446 07-08-2018 13:05:00 32.3 C 37 % 15.75 C
447 07-08-2018 13:10:00 32.6 C 37 % 16.01 C
448 07-08-2018 13:15:00 32.7 C 37 % 16.1 C
449 07-08-2018 13:20:00 32.9 C 36 % 15.85 C
450 07-08-2018 13:25:00 33 C 37 % 16.36 C
Sensor: Nr:Datum:Temp:Feuchte:Taupunkt:
Aussen-T/F 451 07-08-2018 13:30:00 33.1 C 41 % 18.08 C
452 07-08-2018 13:35:00 32.9 C 39 % 17.11 C
453 07-08-2018 13:40:00 32.8 C 39 % 17.02 C
454 07-08-2018 13:45:00 32.8 C 37 % 16.19 C
455 07-08-2018 13:50:00 33.2 C 35 % 15.67 C
456 07-08-2018 13:55:00 33.7 C 34 % 15.65 C
457 07-08-2018 14:00:00 34.1 C 33 % 15.54 C
458 07-08-2018 14:05:00 34.3 C 33 % 15.71 C
459 07-08-2018 14:10:00 34.3 C 33 % 15.71 C
460 07-08-2018 14:15:00 34.3 C 32 % 15.23 C
461 07-08-2018 14:20:00 34.6 C 32 % 15.49 C
462 07-08-2018 14:25:00 34.8 C 31 % 15.17 C
463 07-08-2018 14:30:00 34.9 C 31 % 15.25 C
464 07-08-2018 14:35:00 34.9 C 31 % 15.25 C
465 07-08-2018 14:40:00 34.8 C 30 % 14.66 C
466 07-08-2018 14:45:00 34.8 C 31 % 15.17 C
467 07-08-2018 14:50:00 34.9 C 31 % 15.25 C
468 07-08-2018 14:55:00 35 C 30 % 14.83 C
469 07-08-2018 15:00:00 35.2 C 30 % 15 C
470 07-08-2018 15:05:00 35.2 C 30 % 15 C
471 07-08-2018 15:10:00 35.2 C 30 % 15 C
472 07-08-2018 15:15:00 35.3 C 30 % 15.09 C
473 07-08-2018 15:20:00 35.5 C 29 % 14.73 C
474 07-08-2018 15:25:00 35.8 C 29 % 14.99 C
475 07-08-2018 15:30:00 35.8 C 30 % 15.52 C
Sensor: Nr:Datum:Temp:Feuchte:Taupunkt:
Aussen-T/F 476 07-08-2018 15:35:00 35.9 C 28 % 14.53 C
477 07-08-2018 15:40:00 36.1 C 29 % 15.24 C
478 07-08-2018 15:45:00 36.3 C 29 % 15.41 C
479 07-08-2018 15:50:00 36.6 C 29 % 15.67 C
480 07-08-2018 15:55:00 36.9 C 28 % 15.38 C
481 07-08-2018 16:00:00 37.2 C 27 % 15.07 C
482 07-08-2018 16:05:00 37.1 C 27 % 14.98 C
483 07-08-2018 16:10:00 37.2 C 27 % 15.07 C
484 07-08-2018 16:15:00 37.3 C 26 % 14.57 C
485 07-08-2018 16:20:00 37.4 C 26 % 14.65 C
486 07-08-2018 16:25:00 37.1 C 27 % 14.98 C
487 07-08-2018 16:30:00 37 C 27 % 14.9 C
488 07-08-2018 16:35:00 37.2 C 28 % 15.63 C
489 07-08-2018 16:40:00 37.7 C 27 % 15.49 C
490 07-08-2018 16:45:00 38 C 27 % 15.74 C
491 07-08-2018 16:50:00 38.1 C 28 % 16.4 C
492 07-08-2018 16:55:00 37.8 C 27 % 15.57 C
493 07-08-2018 17:00:00 37.6 C 26 % 14.82 C
494 07-08-2018 17:05:00 37.6 C 26 % 14.82 C
495 07-08-2018 17:10:00 37.9 C 26 % 15.07 C
496 07-08-2018 17:15:00 38.1 C 25 % 14.63 C
497 07-08-2018 17:20:00 37.9 C 26 % 15.07 C
498 07-08-2018 17:25:00 37.7 C 27 % 15.49 C
499 07-08-2018 17:30:00 37.4 C 28 % 15.8 C
500 07-08-2018 17:35:00 37.5 C 27 % 15.32 C
Sensor: Nr:Datum:Temp:Feuchte:Taupunkt:
Aussen-T/F 501 07-08-2018 17:40:00 37.8 C 26 % 14.99 C
502 07-08-2018 17:45:00 37.9 C 26 % 15.07 C
503 07-08-2018 17:50:00 37.8 C 26 % 14.99 C
504 07-08-2018 17:55:00 38.2 C 25 % 14.71 C
505 07-08-2018 18:00:00 38.3 C 25 % 14.8 C
506 07-08-2018 18:05:00 38.3 C 23 % 13.51 C
507 07-08-2018 18:10:00 38.4 C 24 % 14.25 C
508 07-08-2018 18:15:00 38.4 C 23 % 13.59 C
509 07-08-2018 18:20:00 38.4 C 23 % 13.59 C
510 07-08-2018 18:25:00 38.4 C 24 % 14.25 C
511 07-08-2018 18:30:00 38.4 C 23 % 13.59 C
512 07-08-2018 18:35:00 38.3 C 23 % 13.51 C
513 07-08-2018 18:40:00 38.3 C 23 % 13.51 C
514 07-08-2018 18:45:00 38.2 C 23 % 13.43 C
515 07-08-2018 18:50:00 38 C 24 % 13.92 C
516 07-08-2018 18:55:00 37.8 C 23 % 13.1 C
517 07-08-2018 19:00:00 37.7 C 25 % 14.29 C
518 07-08-2018 19:05:00 37.6 C 23 % 12.93 C
519 07-08-2018 19:10:00 37.6 C 24 % 13.58 C
520 07-08-2018 19:15:00 37.6 C 24 % 13.58 C
521 07-08-2018 19:20:00 37.5 C 24 % 13.5 C
522 07-08-2018 19:25:00 37.2 C 24 % 13.25 C
523 07-08-2018 19:30:00 36.9 C 28 % 15.38 C
524 07-08-2018 19:35:00 36.7 C 27 % 14.64 C
525 07-08-2018 19:40:00 36.4 C 29 % 15.5 C
Sensor: Nr:Datum:Temp:Feuchte:Taupunkt:
Aussen-T/F 526 07-08-2018 19:45:00 36.1 C 26 % 13.56 C
527 07-08-2018 19:50:00 35.7 C 31 % 15.94 C
528 07-08-2018 19:55:00 35.4 C 32 % 16.18 C
529 07-08-2018 20:00:00 35 C 33 % 16.32 C
530 07-08-2018 20:05:00 34.5 C 35 % 16.81 C
531 07-08-2018 20:10:00 34 C 37 % 17.25 C
532 07-08-2018 20:15:00 33.6 C 39 % 17.73 C
533 07-08-2018 20:20:00 33.3 C 40 % 17.86 C
534 07-08-2018 20:25:00 33.2 C 40 % 17.77 C
535 07-08-2018 20:30:00 33 C 41 % 17.99 C
536 07-08-2018 20:35:00 32.9 C 41 % 17.9 C
537 07-08-2018 20:40:00 32.8 C 42 % 18.19 C
538 07-08-2018 20:45:00 32.7 C 43 % 18.48 C
539 07-08-2018 20:50:00 32.4 C 43 % 18.21 C
540 07-08-2018 20:55:00 32.2 C 44 % 18.39 C
541 07-08-2018 21:00:00 32.1 C 45 % 18.66 C
542 07-08-2018 21:05:00 31.8 C 45 % 18.39 C
543 07-08-2018 21:10:00 31.6 C 46 % 18.56 C
544 07-08-2018 21:15:00 31.3 C 48 % 18.97 C
545 07-08-2018 21:20:00 31 C 48 % 18.7 C
546 07-08-2018 21:25:00 30.6 C 48 % 18.33 C
547 07-08-2018 21:30:00 30.3 C 48 % 18.06 C
548 07-08-2018 21:35:00 30.1 C 49 % 18.21 C
549 07-08-2018 21:40:00 29.8 C 50 % 18.25 C
550 07-08-2018 21:45:00 29.6 C 49 % 17.75 C
Sensor: Nr:Datum:Temp:Feuchte:Taupunkt:
Aussen-T/F 551 07-08-2018 21:50:00 29.3 C 50 % 17.8 C
552 07-08-2018 21:55:00 29.2 C 52 % 18.33 C
553 07-08-2018 22:00:00 28.9 C 52 % 18.05 C
554 07-08-2018 22:05:00 28.8 C 53 % 18.26 C
555 07-08-2018 22:10:00 28.6 C 53 % 18.08 C
556 07-08-2018 22:15:00 28.5 C 54 % 18.29 C
557 07-08-2018 22:20:00 28.4 C 55 % 18.49 C
558 07-08-2018 22:25:00 28.3 C 54 % 18.1 C
559 07-08-2018 22:30:00 28.3 C 54 % 18.1 C
560 07-08-2018 22:35:00 28.3 C 54 % 18.1 C
561 07-08-2018 22:40:00 28.3 C 54 % 18.1 C
562 07-08-2018 22:45:00 28.2 C 55 % 18.3 C
563 07-08-2018 22:50:00 28.2 C 54 % 18.01 C
564 07-08-2018 22:55:00 28.2 C 54 % 18.01 C
565 07-08-2018 23:00:00 28.1 C 55 % 18.21 C
566 07-08-2018 23:05:00 28.1 C 55 % 18.21 C
567 07-08-2018 23:10:00 28.1 C 55 % 18.21 C
568 07-08-2018 23:15:00 28.1 C 55 % 18.21 C
569 07-08-2018 23:20:00 28.1 C 55 % 18.21 C
570 07-08-2018 23:25:00 28 C 56 % 18.4 C
571 07-08-2018 23:30:00 27.9 C 55 % 18.02 C
572 07-08-2018 23:35:00 27.8 C 56 % 18.22 C
573 07-08-2018 23:40:00 27.7 C 56 % 18.12 C
574 07-08-2018 23:45:00 27.7 C 57 % 18.41 C
575 07-08-2018 23:50:00 27.6 C 57 % 18.31 C
Sensor: Nr:Datum:Temp:Feuchte:Taupunkt:
Aussen-T/F 576 07-08-2018 23:55:00 27.5 C 57 % 18.22 C

Legende:
   Min
   Max


Maximal/Minimal-Werte vom 06.08.2018 - 07.08.2018

Sensor Min Max Avg
Temp
(Aussen-T/F)
14.7 °C
06-08-2018  06:45:00
38.4 °C
07-08-2018  18:10:00
25.45 °C
Feuchte
(Aussen-T/F)
23 %
07-08-2018  18:05:00
84 %
06-08-2018  06:35:00
56.58 %
Taupunkt
(Aussen-T/F)
11.85 C
06-08-2018  06:45:00
18.97 C
07-08-2018  21:15:00
14.83 C

Die Daten stammen von einer Davis Vantage Pro 2 Wetter-Station und werden unter Linux mit der Software wview2wettercgi und aufbereitet. Alle Angaben erfolgen ohne Gewähr für ihre Vollständigkeit oder Richtigkeit.
Kontakt: Rainer Krienke krienke@uni-koblenz.de . Meine Webseiten an der Uni Koblenz oder privat.
Version: $Revision: 0.78 $